Location: Unspecified
(35.7769°N, 0.0000°E)
Time: 10:44:13
(UTC+00:00)

NOAA 11 DEB - Visible Passes

Search period start: 04 April 2026 00:00
Search period end: 14 April 2026 00:00
Orbit: 780 x 799 km, 98.5° (Epoch: 29 March)

Date Brightness Start Highest point End Pass type
(mag) Time Alt. Az. Time Alt. Az. Time Alt. Az.
4 Apr ? 03:25:09 10° NE 03:29:34 27° E 03:33:57 10° SSE visible
4 Apr ? 05:04:21 10° N 05:08:58 32° WNW 05:13:34 10° SW visible
5 Apr ? 02:57:04 10° ENE 02:59:34 13° E 03:02:02 10° ESE visible
5 Apr ? 04:34:12 10° N 04:39:23 63° WNW 04:44:33 10° SSW visible
6 Apr ? 04:04:26 10° NNE 04:09:41 67° ESE 04:14:53 10° S visible
7 Apr ? 03:35:06 10° NNE 03:39:51 34° E 03:44:33 10° SSE visible
8 Apr ? 03:06:29 10° NE 03:09:53 17° E 03:13:15 10° SE visible
8 Apr ? 04:44:30 10° N 04:49:34 49° WNW 04:54:36 10° SW visible
9 Apr ? 04:14:37 10° NNE 04:19:54 85° ESE 04:25:08 10° SSW visible
10 Apr ? 03:45:06 10° NNE 03:50:06 43° E 03:55:02 10° S visible
11 Apr ? 03:16:10 10° NE 03:20:10 22° E 03:24:09 10° SE visible
11 Apr ? 04:54:51 10° N 04:59:42 39° WNW 05:04:32 10° SW visible
12 Apr ? 02:49:14 10° E 02:50:06 10° E 02:50:58 10° E visible
12 Apr ? 04:24:48 10° N 04:30:04 77° WNW 04:35:17 10° SSW visible
13 Apr ? 03:55:09 10° NNE 04:00:18 54° E 04:05:25 10° S visible
